Flag for Greece Weather past 2 weeks in Igoumenitsa, Greece

Now
77 °F

Sunny.


Feels Like: 78 °F
Forecast: 79 / 99 °F
Wind: 3 mph from West

Location: Kerkyra Airport

Current Time: Jul 30, 2015 at 8:14:32 AM

Latest Report: Jul 30, 2015 at 7:50 AM


Visibility: 10 mi

Pressure: 29.74 "Hg

Humidity: 89%

Dew point: 73 °F

Location of IgoumenitsaLocation

Historic Weather in Igoumenitsa — Graph

°F

Igoumenitsa temperature yesterday

Maximum temperature yesterday: 97 °F (at 3:50 PM)
Minimum temperature yesterday: 75 °F (at 6:50 AM)
Average temperature yesterday: 87 °F

Past Weeks' High & Low Weather Summary

 TemperatureHumidityPressure
High102 °F (Jul 21, 4:50 PM)94% (Jul 15, 6:50 AM)30.01 "Hg (Jul 15, 6:50 AM)
Low72 °F (Jul 15, 6:20 AM)27% (Jul 23, 1:20 PM)29.71 "Hg (Jul 27, 4:50 PM)
Average86 °F65%29.83 "Hg
* Reported Jul 15 6:20 AM — Jul 30 6:50 AM, Igoumenitsa, Weather by CustomWeather, © 2015

Note: Actual official high and low records may vary slightly from our data, if they occured in-between our weather recording intervals... More about our weather records

Advertising

Igoumenitsa weather history for previous 24 hours

 ConditionsComfort  
Time TempWeatherWind HumidityBarometerVisibility
6:50 AM
Thu, Jul 30
75 °FClear.2 mph94%29.74 "Hg10 mi
6:20 AM77 °FClear.No wind94%29.74 "Hg10 mi
5:50 AM77 °FClear.No wind94%29.74 "Hg10 mi
5:20 AM79 °FClear.No wind89%29.74 "Hg10 mi
4:50 AM79 °FClear.2 mph89%29.74 "Hg10 mi
4:20 AM79 °FClear.No wind89%29.74 "Hg10 mi
3:50 AM79 °FClear.No wind89%29.74 "Hg10 mi
3:20 AM79 °FClear.No wind89%29.74 "Hg10 mi
2:50 AM81 °FClear.No wind84%29.74 "Hg10 mi
2:20 AM81 °FClear.2 mph84%29.74 "Hg10 mi
1:50 AM81 °FClear.No wind84%29.74 "Hg10 mi
1:20 AM81 °FClear.2 mph79%29.74 "Hg10 mi
12:50 AM82 °FClear.2 mph74%29.74 "Hg10 mi
12:20 AM84 °FClear.5 mph58%29.74 "Hg10 mi
11:50 PM
Wed, Jul 29
84 °FClear.6 mph58%29.74 "Hg10 mi
11:20 PM84 °FClear.3 mph51%29.74 "Hg10 mi
10:50 PM86 °FClear.3 mph49%29.74 "Hg10 mi
10:20 PM88 °FClear.3 mph46%29.71 "Hg10 mi
9:50 PM88 °FSunny.6 mph46%29.71 "Hg10 mi
9:20 PM91 °FSunny.5 mph44%29.71 "Hg10 mi
8:50 PM91 °FSunny.6 mph44%29.71 "Hg10 mi
8:20 PM93 °FSunny.9 mph39%29.71 "Hg10 mi
7:50 PM95 °FSunny.9 mph36%29.71 "Hg10 mi
7:20 PM95 °FSunny.8 mph47%29.71 "Hg10 mi
6:50 PM95 °FSunny.6 mph47%29.71 "Hg10 mi
6:20 PM97 °FSunny.8 mph39%29.71 "Hg10 mi
5:50 PM97 °FSunny.8 mph39%29.71 "Hg10 mi
5:20 PM97 °FPassing clouds.6 mph42%29.71 "HgN/A
4:50 PM97 °FPassing clouds.7 mph42%29.71 "HgN/A
4:20 PM97 °FPassing clouds.7 mph42%29.71 "HgN/A
3:50 PM97 °FPassing clouds.7 mph42%29.71 "HgN/A
3:20 PM95 °FPassing clouds.3 mph47%29.74 "HgN/A
2:50 PM95 °FPassing clouds.6 mph47%29.74 "HgN/A
2:20 PM93 °FSunny.7 mph53%29.74 "Hg10 mi
1:50 PM93 °FSunny.7 mph53%29.74 "Hg10 mi
1:20 PM91 °FSunny.8 mph49%29.74 "Hg10 mi
12:50 PM91 °FSunny.9 mph49%29.74 "Hg10 mi
12:20 PM91 °FSunny.8 mph56%29.74 "Hg10 mi
11:50 AM90 °FSunny.7 mph59%29.74 "Hg10 mi
11:20 AM90 °FSunny.6 mph59%29.74 "Hg10 mi
10:50 AM88 °FSunny.6 mph62%29.74 "Hg10 mi
10:20 AM86 °FSunny.5 mph66%29.74 "Hg10 mi
9:50 AM84 °FSunny.5 mph70%29.74 "Hg10 mi
9:20 AM82 °FSunny.3 mph74%29.74 "Hg10 mi
8:50 AM79 °FSunny.No wind84%29.74 "Hg10 mi
8:20 AM79 °FSunny.No wind84%29.74 "Hg10 mi
Weather by CustomWeather, © 2015

See weather overviewHow to use our weather pages